Starlink 4662

operational
NORAD ID: 53738 Int'l Des: 2022-107 Owner: SPXS Country: US Constellation: starlink
LEOCIRCULAR

Über Starlink 4662

Beschreibung wird geladen...

Live-Position

3D-Globus wird geladen...

Nächste Überflüge

Höhenverlauf

Altitude vs Time

uPlot chart will show altitude changes over time

Zweizeiliger Elementsatz

1 53738U 22107AQ 26063.03963351 -.00000035 00000-0 15916-4 0 9990
2 53738 53.2173 289.2579 0001416 92.9224 267.1930 15.08837235193598
Epoch: 4. März 2026 • Age: 16 hours

Aktueller Status

Höhe 542.4 km
Geschwindigkeit 7.60 km/s
Subsatellitenpunkt 39.24°N, 29.31°E
Startdatum 5. Sept. 2022
Alter 3.4 years
Typ internet

Technische Details

Klassifizierung Payload
Masse 305.00 kg
Trockenmasse 290.00 kg
Gesamtmasse 305.00 kg
Länge 0.20 m
Durchmesser 2.80 m
Spannweite 9.00 m
Form Box + pan
Hersteller SPXS
Bus-Typ Starlink
Phasenstatus In Orbit
Besitzer/Staat SPXS/US

Große Konstellationen

Loading constellations...